Content
SEND FEEDBACK

Daily
Averages
Monthly
Summary
Mexico

SAN MARTINIANO, QUINTANA ROO


Home > North America > Mexico > Quintana Roo
Elevation: 49 feet     Latitude: 20 47N     Longitude: 087 16W

WEATHER
 
SELECT A DAY
Number of Records: 196,146;   Date Range: 2/21/06 - 7/20/14
 
SHARE

PRINT THIS DATA

[ ← Previous Day ]
WEATHER ALMANAC - MAY 14, 2013
[ Next Day → ]
[ °C ]   °F
Weather ElementAverageHighLow
Temperature71.6 °F84.2 °F (3:15 pm)55.4 °F (5:55 am)
Dewpoint44.5 °F57.2 °F (11:35 pm)30.2 °F (6:15 pm)
Humidity44.6 %77 % (12:35 am)14 % (6:15 pm)
Barometer30.20 in30.25 in (10:15 am)30.15 in (5:55 pm)
Wind Speed4.4 mph10.4 mph (2:55 pm)
Wind Gust40.3 mph (5:15 pm)
Weather ElementAverage
Visibility10 mi
Wind DirectionENE (58.5 °)

Weather ElementTotal
Precipitation---
Cooling Degree Days4.8 (Base 65)
Growing Degree Days19.8 (Base 50)
Averaged from 71 records on May 14, 2013
WEATHER CONDITIONS BREAKOUT
WIND DIRECTION BREAKOUT
WEATHER BY HOUR - MAY 14, 2013
[ °C ]   °F
Local TimeTemperatureDewpointHumidityBarometerVisibilityWind DirectionWind SpeedGust SpeedPrecipitationEventsConditions
12:35 AM62.6 °F55.4 °F77 %30.17 in10.0 miNorth (350°)3.5 mphClear
12:55 AM62.6 °F53.6 °F72 %30.17 in10.0 miCalmClear
1:15 AM62.6 °F53.6 °F72 %30.17 in10.0 miNNE (20°)3.5 mphClear
1:35 AM62.6 °F53.6 °F72 %30.17 in10.0 miCalmClear
1:55 AM60.8 °F53.6 °F77 %30.16 in10.0 miNNE (20°)3.5 mphClear
2:15 AM60.8 °F51.8 °F72 %30.17 in10.0 miNNE (30°)4.6 mphClear
2:35 AM62.6 °F50.0 °F63 %30.17 in10.0 miNNE (20°)5.8 mphClear
2:55 AM60.8 °F50.0 °F68 %30.17 in10.0 miNNE (30°)3.5 mphClear
3:15 AM60.8 °F48.2 °F63 %30.18 in10.0 miNorth (10°)3.5 mphClear
3:35 AM60.8 °F50.0 °F68 %30.18 in10.0 miCalmClear
3:55 AM59.0 °F50.0 °F72 %30.18 in10.0 miCalmClear
4:15 AM57.2 °F50.0 °F77 %30.18 in10.0 miCalmClear
4:35 AM57.2 °F50.0 °F77 %30.18 in10.0 miNE (40°)3.5 mphClear
4:55 AM57.2 °F50.0 °F77 %30.18 in10.0 miCalmClear
5:15 AM57.2 °F48.2 °F72 %30.18 in10.0 miNorth (10°)3.5 mphClear
5:35 AM57.2 °F50.0 °F77 %30.19 in10.0 miNorth (10°)3.5 mphClear
5:55 AM55.4 °F48.2 °F77 %30.19 in10.0 miCalmClear
6:15 AM55.4 °F48.2 °F77 %30.19 in10.0 miNorth (10°)4.6 mphClear
6:35 AM55.4 °F48.2 °F77 %30.20 in10.0 miNorth (10°)4.6 mphClear
6:55 AM55.4 °F46.4 °F72 %30.20 in10.0 miCalmClear
7:15 AM57.2 °F46.4 °F67 %30.21 in10.0 miNNE (20°)3.5 mphClear
7:35 AM57.2 °F48.2 °F72 %30.22 in10.0 miNNE (30°)3.5 mphClear
7:55 AM60.8 °F48.2 °F63 %30.22 in10.0 miNE (40°)3.5 mphClear
8:15 AM62.6 °F50.0 °F63 %30.23 in10.0 miCalmClear
8:35 AM64.4 °F50.0 °F59 %30.24 in10.0 miCalmClear
8:55 AM66.2 °F51.8 °F60 %30.24 in10.0 miNNE (20°)4.6 mphClear
9:15 AM69.8 °F51.8 °F53 %30.24 in10.0 miNNE (20°)6.9 mphClear
9:35 AM71.6 °F51.8 °F50 %30.24 in10.0 miNE (50°)6.9 mphClear
9:55 AM73.4 °F51.8 °F47 %30.24 in10.0 miNNE (20°)5.8 mphClear
10:15 AM75.2 °F51.8 °F44 %30.25 in10.0 miNNE (30°)8.1 mphClear
10:35 AM75.2 °F48.2 °F38 %30.24 in10.0 miNNE (30°)6.9 mphClear
10:55 AM77.0 °F41.0 °F28 %30.24 in10.0 miNE (50°)8.1 mphClear
11:15 AM78.8 °F37.4 °F23 %30.24 in10.0 miEast (80°)8.1 mphClear
11:35 AM78.8 °F41.0 °F26 %30.25 in10.0 miNE (50°)8.1 mphClear
11:55 AM78.8 °F37.4 °F23 %30.25 in10.0 miENE (60°)6.9 mphClear
12:15 PM78.8 °F39.2 °F24 %30.25 in10.0 miNE (50°)8.1 mphClear
12:35 PM80.6 °F39.2 °F23 %30.24 in10.0 miENE (70°)9.2 mphClear
12:55 PM80.6 °F41.0 °F24 %30.24 in10.0 miNNE (30°)8.1 mphClear
1:15 PM82.4 °F41.0 °F23 %30.23 in10.0 miSE (140°)5.8 mphClear
1:35 PM82.4 °F39.2 °F21 %30.23 in10.0 miCalmClear
1:55 PM82.4 °F39.2 °F21 %30.22 in10.0 miENE (70°)3.5 mphClear
2:15 PM82.4 °F39.2 °F21 %30.21 in10.0 miENE (60°)3.5 mphClear
2:35 PM82.4 °F39.2 °F21 %30.20 in10.0 miEast (80°)5.8 mphClear
2:55 PM82.4 °F37.4 °F20 %30.19 in10.0 miNE (50°)10.4 mph16.1 mphClear
3:15 PM84.2 °F37.4 °F19 %30.19 in10.0 miNNW (330°)8.1 mphClear
3:35 PM84.2 °F33.8 °F16 %30.18 in10.0 miNNW (330°)4.6 mphClear
3:55 PM84.2 °F37.4 °F19 %30.17 in10.0 miESE (120°)3.5 mphClear
4:15 PM84.2 °F37.4 °F19 %30.17 in10.0 miEast (80°)3.5 mphClear
4:35 PM84.2 °F35.6 °F18 %30.17 in10.0 miNorth (360°)4.6 mphClear
4:55 PM84.2 °F35.6 °F18 %30.16 in10.0 miNorth (360°)5.8 mphClear
5:15 PM84.2 °F33.8 °F16 %30.16 in10.0 miENE (70°)10.4 mph40.3 mphClear
5:35 PM84.2 °F33.8 °F16 %30.16 in10.0 miNNE (30°)8.1 mphClear
5:55 PM84.2 °F32.0 °F15 %30.15 in10.0 miNE (40°)5.8 mphClear
6:15 PM84.2 °F30.2 °F14 %30.15 in10.0 miNE (40°)6.9 mphClear
6:35 PM84.2 °F32.0 °F15 %30.15 in10.0 miNE (50°)8.1 mphClear
6:55 PM82.4 °F32.0 °F16 %30.15 in10.0 miNNE (30°)5.8 mphClear
7:15 PM82.4 °F32.0 °F16 %30.15 in10.0 miNE (40°)3.5 mphClear
7:35 PM80.6 °F33.8 °F18 %30.15 in10.0 miNNE (20°)5.8 mphClear
7:55 PM78.8 °F35.6 °F21 %30.16 in10.0 miNNE (20°)3.5 mphClear
8:15 PM78.8 °F35.6 °F21 %30.16 in10.0 miNorth (10°)3.5 mphClear
8:35 PM77.0 °F37.4 °F24 %30.17 in10.0 miNNE (30°)3.5 mphClear
8:55 PM73.4 °F39.2 °F29 %30.17 in10.0 miCalmClear
9:15 PM71.6 °F41.0 °F33 %30.18 in10.0 miCalmClear
9:35 PM69.8 °F42.8 °F38 %30.20 in10.0 miENE (60°)4.6 mphClear
9:55 PM71.6 °F46.4 °F41 %30.20 in10.0 miEast (100°)5.8 mphClear
10:15 PM73.4 °F53.6 °F50 %30.21 in10.0 miESE (110°)6.9 mphClear
10:35 PM73.4 °F55.4 °F53 %30.22 in10.0 miESE (110°)6.9 mphClear
10:55 PM71.6 °F55.4 °F57 %30.22 in10.0 miEast (100°)3.5 mphClear
11:15 PM69.8 °F55.4 °F60 %30.22 in10.0 miCalmClear
11:35 PM69.8 °F57.2 °F64 %30.23 in10.0 miCalmClear
11:55 PM68.0 °F57.2 °F68 %30.22 in10.0 miEast (100°)3.5 mphClear
Hourly data recorded from KPCM, located miles away from San Martiniano, Quintana Roo







STORIES FROM OUR PARTNERS